Theta_e
310 310 311 311 316 323 321 320 322 320 320 315 316 317 319 322 321 321 321 322 321 326 328 325 325 323 328 334 334 335 336 340 343 339 340 349 350 350 352 350 350 346 346 343 338 336 331 328 326 326 327 329 333 337 338 339 341 341 341 341 341 340 340 339 338 338 337 337 335 333 330 327 324 319 315 317 320 322 319 314 311 309 311 313 310 309 308 309 311 310 309 308 308 308 308 309 310
314 315 313 313 318 322 322 320 318 317 316 313 316 319 320 322 320 320 321 321 322 324 325 322 322 322 328 336 338 336 339 344 347 347 347 349 349 352 351 350 349 346 346 343 337 334 331 326 325 325 326 327 328 332 334 336 339 340 340 341 340 340 339 339 338 338 338 337 335 332 329 326 325 320 315 317 321 322 320 317 312 310 315 313 309 310 309 311 314 312 311 310 309 308 308 308 309
320 319 315 316 320 323 323 320 315 314 314 313 316 321 321 321 320 320 321 320 321 321 321 321 321 326 330 335 338 337 342 346 348 348 348 348 351 351 351 350 348 346 345 342 336 334 332 326 324 324 324 326 325 326 328 331 336 338 339 340 339 339 339 338 338 338 336 334 332 329 326 324 324 321 317 318 324 325 322 319 315 318 323 317 313 314 313 315 315 313 313 312 310 309 308 308 308
319 319 318 318 320 321 321 318 316 314 313 313 315 320 321 320 320 320 321 320 320 320 321 322 324 334 336 340 342 340 345 348 347 348 348 348 350 351 351 349 347 346 343 342 338 335 333 326 323 324 325 326 324 322 322 325 330 335 338 339 339 339 338 338 338 336 332 330 329 327 325 323 322 321 321 324 330 332 328 322 320 327 329 325 323 323 322 322 318 316 316 315 314 311 309 308 308
317 319 320 321 320 320 320 318 318 315 313 315 315 319 321 320 320 319 320 320 320 320 322 322 326 337 340 346 347 343 348 348 347 347 349 349 351 351 350 348 347 345 342 342 341 338 334 325 323 325 327 327 325 323 321 322 325 331 336 338 338 339 338 338 336 332 329 328 329 328 328 329 328 327 329 333 335 335 333 326 323 328 331 331 332 332 332 329 322 319 318 317 316 313 311 309 309
318 319 319 322 323 322 320 317 317 315 317 320 318 320 320 319 320 319 321 320 321 321 322 323 329 337 342 348 348 348 349 349 347 348 350 350 351 351 349 348 346 344 343 342 342 341 334 325 324 325 328 327 326 325 323 320 321 327 333 337 338 338 338 338 334 329 329 330 330 333 335 336 335 333 332 333 335 337 335 328 326 329 332 335 335 334 334 330 325 320 319 317 315 313 313 311 310
320 319 318 319 321 321 318 315 315 317 319 321 320 320 320 319 320 320 321 321 321 322 322 326 332 338 344 346 347 349 349 349 348 348 350 350 351 351 349 347 346 345 344 343 342 340 332 325 325 326 329 328 328 327 324 320 320 323 331 336 337 338 337 335 331 329 332 332 335 337 339 339 337 336 332 328 330 333 332 328 331 333 333 335 334 334 333 330 325 321 318 316 315 313 313 312 311
320 320 319 317 319 318 316 316 317 319 319 320 320 320 319 319 322 322 322 322 322 323 324 327 334 338 342 344 347 348 347 348 348 349 350 350 351 351 349 347 346 345 344 343 342 338 331 326 325 327 329 328 328 327 324 321 320 321 327 333 334 335 334 331 329 331 335 336 337 339 340 340 338 336 333 328 325 327 328 329 334 334 333 335 334 334 331 328 324 320 319 316 315 313 313 313 312
319 321 322 317 318 318 316 316 318 320 320 319 320 319 319 322 325 324 323 324 323 324 325 325 332 337 342 345 348 349 348 348 348 349 351 351 352 351 349 347 346 345 344 344 341 334 328 325 325 327 328 328 328 328 325 322 321 321 325 328 330 331 330 329 330 333 335 337 339 339 339 339 337 334 332 329 324 325 327 330 335 334 333 333 334 332 329 327 324 322 320 318 315 313 313 312 313
319 320 321 317 317 317 315 316 317 320 320 319 319 319 321 323 325 326 325 327 326 324 324 323 329 338 344 346 349 349 348 348 348 350 351 351 352 350 348 346 346 346 344 345 340 331 327 324 324 328 328 327 328 327 325 323 322 322 325 326 327 328 328 329 332 333 335 338 338 338 337 337 335 332 331 330 326 325 327 332 335 333 332 333 333 330 327 326 325 324 322 321 317 314 312 313 313
319 319 318 318 316 314 314 316 317 319 320 319 319 320 320 323 326 327 327 329 328 326 324 323 329 340 345 344 348 350 348 348 349 350 351 351 352 350 348 346 346 345 345 345 338 331 327 323 324 327 327 327 327 327 325 324 322 322 324 326 327 327 328 331 332 333 335 337 337 336 335 334 333 332 333 330 326 324 326 332 333 331 332 333 331 327 327 327 326 326 324 323 320 317 314 313 314
319 318 317 317 315 315 316 316 318 320 319 318 319 320 320 323 325 325 329 329 326 326 324 325 330 340 344 343 348 349 348 349 349 349 350 351 352 350 347 346 346 346 345 343 337 332 327 324 325 326 326 326 326 326 325 325 323 321 322 323 325 327 329 332 333 333 335 335 335 334 333 332 333 334 333 329 326 322 324 331 332 332 332 331 329 325 326 327 327 327 326 326 323 321 318 315 315
319 320 318 315 316 317 317 317 318 319 318 319 319 320 320 322 324 326 330 329 324 324 322 327 334 341 346 347 348 349 349 349 349 349 350 351 350 350 348 347 347 347 346 341 337 333 331 326 326 328 327 326 326 326 326 326 325 323 321 321 321 323 328 332 333 334 334 333 333 333 332 332 333 334 332 330 328 322 322 330 334 333 331 328 328 326 325 326 327 327 327 327 326 324 322 320 318
319 320 318 316 318 317 317 317 317 317 316 319 320 319 320 321 324 326 330 329 325 327 327 331 337 343 346 348 348 348 349 348 348 348 348 349 349 349 348 347 347 348 345 341 338 335 334 329 328 330 328 326 326 327 327 327 327 326 324 322 320 321 326 331 333 333 332 331 330 329 329 330 332 333 332 331 331 327 322 328 333 332 330 329 327 325 325 325 325 326 326 327 327 326 325 324 322
318 319 318 317 317 317 317 317 317 317 316 320 320 319 321 320 323 326 330 332 331 334 337 335 337 342 344 344 346 348 350 348 348 347 348 348 348 347 346 347 347 347 344 343 340 337 338 334 331 331 328 327 327 328 329 328 327 328 326 324 322 323 326 330 332 331 330 328 327 326 326 327 330 331 331 330 332 331 326 326 330 330 329 328 325 324 324 324 324 325 326 326 327 327 326 325 325
318 318 318 316 315 316 316 317 317 316 317 320 319 319 320 320 323 326 331 335 337 338 337 338 339 342 342 341 344 348 349 347 348 347 348 347 347 347 345 346 347 346 344 343 341 339 340 338 335 331 330 332 331 332 332 330 329 328 326 324 323 324 326 329 329 328 328 327 326 324 324 326 329 329 329 330 331 332 330 327 326 326 326 324 322 322 324 324 324 325 326 327 327 327 327 326 327
317 317 317 315 315 315 317 318 317 316 318 320 319 320 319 320 321 323 329 334 338 337 336 340 343 343 342 341 345 349 349 347 347 347 348 347 347 347 345 346 346 345 344 343 341 341 340 340 339 334 334 336 335 336 335 333 331 328 328 326 325 326 326 327 328 327 327 326 324 323 324 327 330 329 329 330 330 331 331 329 327 325 323 320 319 322 326 326 324 324 325 327 327 327 327 327 328
317 316 316 315 316 316 318 319 317 318 319 319 319 320 319 320 321 321 325 330 337 337 337 342 344 344 343 344 346 349 348 346 347 347 348 347 346 346 344 346 346 344 344 344 341 341 341 341 341 338 338 337 336 337 336 335 332 330 330 328 327 328 328 328 327 327 326 325 325 325 327 330 331 330 331 331 332 333 333 333 332 329 325 322 320 321 326 326 325 325 325 326 326 327 327 327 327
317 317 316 316 318 318 319 318 318 318 318 319 319 319 319 319 320 321 321 326 334 336 338 343 344 344 344 346 347 348 347 347 347 347 348 347 346 346 344 345 345 344 344 344 342 342 341 341 341 340 340 338 336 338 337 335 333 333 332 328 328 328 328 328 327 327 327 327 329 329 330 331 331 331 331 332 332 333 334 334 335 334 331 328 324 320 322 324 326 327 326 326 326 326 327 329 328
317 317 316 317 319 319 318 318 318 318 318 318 319 319 319 319 320 321 321 323 328 332 338 342 344 345 344 346 348 348 347 347 347 348 348 347 347 345 345 345 344 343 343 344 343 342 341 340 341 341 340 338 338 339 338 335 335 336 333 329 328 328 329 329 330 331 330 331 332 332 332 331 331 332 332 332 333 334 334 334 334 332 328 326 325 320 319 320 323 325 326 327 327 326 330 333 332
317 317 317 318 319 318 318 318 317 318 317 317 319 318 318 319 319 321 321 322 323 329 337 340 344 343 343 345 348 348 347 347 347 348 348 347 346 345 345 345 344 343 343 343 343 343 342 340 341 341 340 339 339 340 338 336 336 336 334 331 330 331 332 332 333 333 332 333 332 333 334 332 331 333 332 332 333 333 332 330 327 324 319 321 323 322 320 319 321 323 323 323 326 329 332 333 332
317 317 317 319 319 318 318 318 317 317 317 317 318 317 319 319 319 321 321 321 323 328 334 338 342 341 342 344 347 348 348 348 348 348 347 346 345 344 344 343 344 343 343 343 343 343 341 340 341 340 340 340 339 339 339 337 336 336 334 332 332 333 333 334 334 333 333 333 333 333 333 331 332 333 332 332 331 329 328 325 324 324 321 320 324 327 327 324 326 328 325 324 328 331 332 331 330
317 317 318 319 318 318 318 318 318 316 317 317 318 318 319 318 319 320 320 322 322 326 331 335 341 341 342 345 346 347 347 348 348 348 347 346 345 344 344 343 343 343 343 343 343 342 340 340 340 338 338 339 338 338 339 338 336 336 336 335 334 333 334 336 334 333 334 333 333 333 332 332 334 333 332 332 331 330 331 330 330 331 328 326 328 331 331 330 332 332 330 330 331 331 331 331 331
316 316 318 319 317 318 317 317 317 316 317 317 318 318 318 318 319 319 320 322 321 324 329 335 341 341 343 345 347 347 347 348 348 348 347 345 345 344 344 343 343 343 342 342 341 341 339 339 339 339 338 338 337 337 337 338 337 337 337 336 335 333 335 335 334 333 333 333 332 332 333 334 334 333 332 332 333 334 334 334 333 333 333 332 332 333 332 332 332 331 332 332 331 331 332 332 331
316 316 318 319 318 319 317 317 317 317 318 317 317 317 318 318 318 319 320 321 323 326 329 337 342 341 342 345 346 347 347 348 347 347 346 345 345 344 344 343 343 342 341 340 340 340 339 338 338 338 339 338 338 337 336 338 338 338 338 336 334 333 335 334 333 333 332 332 333 333 334 334 333 332 331 333 335 336 335 335 335 335 336 333 330 331 329 328 329 330 331 332 332 331 332 331 331
316 316 317 317 317 318 317 317 317 317 317 317 317 317 318 318 317 319 319 321 325 328 333 341 343 340 340 344 347 347 347 347 346 345 345 345 345 344 344 343 343 343 341 340 340 340 339 338 338 338 338 338 338 336 336 336 337 338 337 335 334 333 334 334 333 333 332 332 332 333 333 332 332 331 331 334 336 336 334 334 334 333 333 330 327 327 326 327 330 331 331 332 333 332 332 331 332
318 317 317 317 317 318 317 318 317 318 317 317 317 316 317 318 318 319 319 324 326 329 336 338 342 341 340 344 347 347 347 346 345 344 345 345 344 344 344 343 343 343 341 340 340 340 338 337 338 338 337 337 337 337 336 336 336 338 337 335 334 333 334 333 332 333 331 331 332 332 332 332 333 332 334 336 335 334 331 330 330 329 328 326 326 328 328 331 333 333 333 335 334 334 334 332 332
317 318 318 317 317 317 317 318 318 317 316 317 317 316 317 317 317 318 321 326 325 329 335 335 338 341 341 345 346 346 346 345 345 345 344 344 344 344 344 343 342 342 343 342 340 339 338 336 337 337 336 335 335 335 336 335 335 337 337 335 333 333 334 333 332 332 332 333 333 333 332 333 334 334 335 338 335 334 333 331 329 327 327 326 328 330 329 331 335 335 333 333 333 334 334 332 333
316 317 316 316 316 316 317 317 317 316 316 317 317 315 315 317 317 319 322 326 326 330 336 335 337 339 342 345 345 345 345 345 345 344 344 344 344 344 344 343 342 342 343 342 340 338 337 336 336 336 334 334 334 334 335 335 336 336 336 335 333 334 334 333 333 333 332 334 334 333 332 334 336 334 334 336 336 336 335 334 332 329 329 329 329 330 329 330 334 334 331 329 330 332 333 333 333
316 316 315 315 315 315 317 317 317 317 316 317 316 313 314 317 318 318 322 323 325 332 336 337 338 340 344 345 344 344 345 344 344 343 344 344 344 343 343 344 343 343 343 341 340 339 337 336 336 336 334 332 333 333 334 333 335 337 337 335 333 334 334 333 333 333 333 335 333 332 331 334 337 335 332 333 335 337 335 334 335 332 331 329 329 330 329 330 333 333 331 331 331 332 333 333 333
315 315 315 315 313 314 317 317 317 316 316 317 315 312 313 317 318 319 322 323 324 330 336 337 339 340 343 345 344 344 344 343 343 343 343 343 342 342 343 344 343 343 341 339 340 339 337 336 336 337 335 333 333 333 331 331 334 337 337 336 334 334 334 333 333 333 334 335 333 331 331 333 335 334 333 332 332 336 336 335 336 334 332 329 329 329 330 331 331 331 333 333 332 332 334 333 333
315 314 314 314 313 314 318 317 317 316 316 317 315 312 314 318 319 320 321 323 323 329 335 337 337 339 342 344 342 343 343 342 343 343 343 342 341 342 343 343 342 341 339 336 337 338 338 337 337 336 335 333 333 332 329 330 334 336 337 336 335 334 333 332 332 333 333 334 333 332 331 331 332 332 332 330 331 334 336 335 336 334 329 328 329 328 329 332 330 330 333 333 333 333 333 333 333
316 314 313 314 313 314 316 317 317 317 316 317 315 313 315 318 320 321 321 322 322 328 334 335 336 337 341 342 343 342 342 343 344 343 342 342 341 341 342 342 341 338 336 335 336 338 338 337 336 335 335 334 333 331 329 331 333 335 337 336 334 333 332 332 332 333 333 334 334 332 331 331 331 330 330 329 329 333 335 334 335 332 329 329 329 327 330 333 330 327 328 330 332 333 333 333 333
315 315 314 315 315 314 315 316 317 317 315 316 316 315 315 317 320 321 321 322 322 326 332 334 334 334 338 342 343 341 342 343 341 340 341 341 341 339 339 341 338 335 336 337 337 337 338 338 336 335 335 334 333 332 332 333 333 334 336 335 333 332 332 332 332 332 332 332 334 334 332 330 329 329 330 330 329 332 335 335 334 332 330 329 328 328 331 333 330 326 325 327 330 333 333 333 332
315 315 314 314 316 314 314 315 316 317 315 316 316 316 316 317 319 320 320 322 322 325 330 334 333 333 336 338 339 340 340 342 338 337 341 341 340 338 338 339 337 335 336 337 336 336 337 337 336 335 335 334 332 332 333 334 333 333 334 334 332 331 331 332 332 332 331 330 331 334 332 329 329 329 331 331 330 332 334 335 333 331 331 329 327 329 331 330 329 327 327 328 329 331 333 333 332
316 317 316 314 315 314 316 316 316 316 316 316 316 316 317 316 318 319 319 321 322 324 327 333 334 333 333 334 338 339 339 342 340 339 340 339 339 339 338 339 338 336 336 336 336 335 335 336 336 336 335 334 332 333 334 334 333 333 333 332 332 332 331 330 331 332 331 329 330 334 332 330 330 330 332 332 331 333 335 334 333 330 332 330 326 330 332 329 327 328 329 328 328 330 331 332 331
317 318 316 315 314 314 317 317 316 317 315 315 316 316 316 317 317 318 319 320 321 324 327 332 334 332 331 334 338 338 337 337 339 341 340 337 338 339 338 338 338 337 336 336 335 335 335 335 335 336 336 336 335 334 335 335 333 333 333 333 333 333 331 330 330 331 331 330 332 334 333 332 331 329 331 332 330 333 334 333 333 331 331 330 327 330 332 328 327 329 330 327 327 329 330 331 330
318 316 315 314 314 314 317 318 316 317 315 315 316 315 316 317 317 318 319 320 321 323 325 329 331 331 332 333 336 336 335 335 336 340 340 337 337 338 338 338 337 336 336 336 335 336 336 335 336 336 337 337 336 335 335 334 334 333 333 333 333 332 331 330 329 329 331 332 333 334 332 330 330 327 328 330 330 332 332 332 333 331 331 330 329 329 328 326 326 329 329 328 329 329 331 331 330
318 316 314 313 314 315 316 318 317 316 316 315 316 315 316 317 317 318 319 320 321 321 323 325 326 328 329 331 335 335 337 338 337 337 338 339 338 337 338 339 338 336 335 335 335 335 335 335 336 337 337 336 335 335 334 333 333 334 333 332 333 332 331 330 330 329 330 332 332 332 331 328 328 328 328 329 330 332 332 331 331 329 330 330 329 328 326 326 327 328 329 330 330 330 331 329 328
318 316 314 313 315 315 314 316 318 316 316 315 316 316 316 318 317 318 319 319 320 320 320 323 324 327 327 328 333 334 337 340 339 337 338 339 338 337 338 339 339 337 335 334 335 336 336 335 336 337 337 335 335 335 333 333 333 333 333 332 333 332 330 329 329 328 328 330 331 331 330 328 329 330 329 329 329 330 330 330 330 329 329 329 329 328 326 326 327 327 329 330 331 331 331 329 327
317 317 316 314 315 315 314 316 317 317 317 317 316 314 314 317 317 318 319 319 320 320 320 320 322 325 327 327 329 332 335 340 341 338 337 340 340 339 339 339 339 339 336 335 336 337 338 337 337 338 338 335 335 334 333 333 333 332 332 333 332 331 331 329 329 329 326 329 331 331 330 329 329 328 328 329 330 329 328 329 330 329 328 327 329 329 328 327 327 328 329 329 330 332 332 330 328
316 317 317 316 316 316 316 317 316 314 314 316 316 312 312 315 316 317 318 318 318 319 320 320 320 321 324 326 327 331 334 338 340 339 338 341 342 341 340 340 340 340 338 336 337 338 339 339 339 338 338 336 335 335 334 333 333 332 332 332 331 331 330 329 329 327 325 329 332 332 330 329 328 326 327 330 330 328 328 329 330 329 328 327 328 329 329 329 329 330 329 328 329 330 330 331 330
314 317 317 317 317 317 316 315 314 312 312 316 317 312 312 314 316 317 317 318 318 319 320 319 320 320 320 325 326 330 333 334 335 337 339 342 343 343 342 341 341 341 340 339 339 340 340 339 338 338 337 335 335 334 333 333 333 332 332 331 331 331 329 327 328 326 325 330 332 331 329 326 326 324 325 329 327 326 327 329 330 330 329 328 328 328 328 329 330 331 330 329 330 329 329 331 331
314 316 317 317 316 316 315 314 313 313 314 316 317 315 312 312 315 318 318 318 317 318 319 319 320 319 319 323 325 326 331 332 331 335 339 340 342 344 343 342 342 341 341 341 341 341 340 338 336 336 336 335 334 334 333 333 333 332 332 331 330 331 328 328 330 329 328 331 331 330 327 324 325 324 324 326 325 325 326 327 329 329 329 329 329 329 328 328 329 330 329 328 330 330 329 330 330
315 316 316 316 316 315 315 314 313 314 314 312 314 316 313 311 314 318 318 318 318 318 319 319 319 319 319 321 323 324 330 333 334 335 337 337 339 342 343 343 342 342 341 340 340 340 339 336 335 335 335 335 335 334 334 333 332 332 331 330 330 331 330 329 329 328 329 330 330 330 327 326 327 326 326 327 326 326 325 324 326 327 329 329 329 330 330 328 328 329 328 327 328 328 328 329 330
315 316 316 315 315 315 315 315 313 314 313 311 313 315 313 312 314 315 316 317 318 318 319 321 322 322 321 319 322 321 325 333 335 335 335 336 337 340 342 343 341 339 338 338 337 338 336 334 333 334 334 335 336 335 333 329 330 332 330 328 329 331 331 329 326 327 329 330 329 328 327 328 328 327 327 327 327 326 323 322 324 326 328 329 329 330 330 329 328 327 326 326 327 327 326 327 328
316 316 315 314 315 315 315 315 314 312 312 312 314 314 313 313 313 316 319 319 320 322 325 327 327 326 325 322 323 321 321 331 334 332 332 335 338 339 341 341 335 332 333 333 332 334 334 332 331 332 333 334 335 334 332 328 328 330 329 329 329 329 329 326 325 328 329 329 329 327 327 328 328 327 327 326 326 326 323 322 325 325 325 327 328 329 330 331 329 327 325 325 326 326 326 325 326
316 315 314 313 313 314 314 314 314 313 312 313 314 314 313 312 313 319 324 324 325 327 327 327 328 328 327 324 323 321 327 333 333 331 331 334 339 340 340 337 332 331 333 331 329 331 331 329 327 330 330 330 332 334 333 329 327 327 328 329 328 327 326 323 326 329 329 328 328 327 327 328 328 328 327 326 325 325 322 321 322 323 323 325 327 328 329 331 331 329 326 325 325 326 326 325 325
315 315 313 312 312 314 314 313 313 313 313 314 315 314 313 313 316 322 325 325 326 327 326 326 328 328 326 326 324 323 329 331 329 331 334 337 341 340 339 336 332 331 331 331 331 332 331 328 327 328 327 326 329 332 333 330 328 328 329 329 327 326 324 323 326 328 328 329 328 328 328 328 328 327 327 327 325 321 319 320 321 323 325 326 326 327 328 330 331 330 327 327 327 327 326 325 325
314 313 312 312 313 314 316 314 314 314 314 314 315 315 313 313 319 326 325 325 327 328 328 328 330 329 327 327 326 324 329 331 329 333 337 339 340 339 337 336 334 332 331 331 332 332 332 331 330 329 328 326 326 330 332 331 329 328 329 328 325 324 323 325 328 327 327 329 329 329 328 328 329 327 328 328 323 320 322 322 323 324 324 324 325 325 326 327 329 329 330 329 327 327 326 326 327
314 314 313 313 313 314 315 314 314 314 314 314 316 315 313 314 321 327 327 326 328 329 330 331 331 331 330 329 328 328 332 333 334 337 339 338 338 339 337 336 336 335 333 331 331 331 332 332 332 331 329 327 327 329 332 332 330 328 328 327 324 322 323 326 328 327 327 329 329 329 329 328 328 327 328 327 323 324 325 321 320 320 319 320 321 322 323 323 324 327 329 328 326 326 324 326 327
315 315 313 313 313 314 314 314 315 315 314 314 315 315 317 321 325 328 327 328 328 329 331 333 332 333 332 331 331 332 332 332 334 336 337 336 337 338 336 335 336 335 333 331 331 330 331 331 331 331 330 329 327 329 332 331 330 328 327 326 323 322 324 326 328 328 326 328 329 328 328 328 327 327 327 327 325 326 325 321 321 319 316 318 318 320 323 322 321 324 327 327 326 325 323 326 327
315 315 313 313 316 316 314 314 315 316 315 315 314 315 319 322 324 326 327 328 327 327 330 332 331 332 334 334 334 335 334 333 333 334 336 336 335 337 336 334 335 335 333 332 332 332 332 331 331 331 330 329 327 328 331 331 330 328 327 325 322 322 324 325 328 327 323 326 329 328 328 327 327 327 327 326 326 326 325 324 324 320 316 318 319 322 325 323 321 324 325 325 324 324 324 326 327
315 314 314 315 316 316 315 315 315 316 315 314 313 313 315 318 321 325 328 328 328 328 328 330 331 331 331 331 331 333 334 333 334 335 336 335 335 336 336 335 336 336 334 332 332 332 332 331 331 331 330 328 327 329 331 330 329 328 326 324 322 323 323 322 327 326 320 325 329 327 327 328 327 327 327 326 325 325 326 325 324 319 314 316 320 324 325 323 323 324 324 323 322 322 324 325 326
315 316 316 316 314 314 315 314 315 316 316 315 313 312 315 319 323 325 328 329 329 328 328 328 330 330 329 328 327 329 330 331 334 336 336 335 335 335 335 335 336 335 334 333 332 332 332 331 331 332 331 329 328 330 332 331 329 329 326 322 322 324 322 322 326 325 322 326 329 327 328 328 327 327 326 325 326 325 325 325 324 320 314 315 322 325 324 323 324 324 324 324 323 323 324 323 324
315 316 316 316 315 316 315 315 316 316 315 315 313 313 319 324 325 326 328 329 329 329 328 327 329 330 330 329 328 330 332 332 334 335 334 334 334 334 335 335 335 334 333 333 333 332 332 332 332 332 333 331 329 330 333 331 330 329 325 321 322 324 324 324 324 324 325 327 328 327 327 327 327 326 324 324 326 326 325 325 324 320 316 318 323 324 323 324 324 323 323 323 323 323 324 323 324
314 314 314 315 316 316 317 316 316 315 315 315 313 315 322 326 326 326 328 328 328 328 328 328 329 330 330 329 330 330 331 332 333 333 333 333 333 333 333 334 334 333 333 333 334 334 333 332 332 332 333 332 331 330 331 331 330 328 325 322 323 323 324 325 323 322 325 327 327 327 327 326 327 326 324 324 326 326 325 325 323 320 318 321 324 323 323 323 323 322 322 322 322 322 323 324 324
315 314 314 314 315 316 316 316 316 316 316 316 315 317 323 326 324 325 327 327 328 328 328 329 329 328 328 328 328 329 329 330 331 331 332 332 332 332 333 333 332 333 333 333 333 334 333 332 331 332 332 332 331 331 330 330 329 327 324 322 323 321 321 323 323 321 324 326 327 326 325 326 327 326 325 325 326 326 325 324 323 321 319 321 324 323 323 323 322 322 322 321 321 321 321 323 324
Wind_Speed
4 5 6 7 6 4 10 10 8 6 6 8 8 10 3 2 1 2 4 3 3 4 2 2 2 5 6 7 8 9 9 8 8 3 3 7 9 13 16 19 22 22 19 20 25 24 22 20 19 20 20 20 20 21 20 20 20 20 20 19 19 18 16 15 14 13 12 10 10 9 8 9 8 9 10 11 11 12 13 14 16 16 16 16 18 18 17 17 17 17 19 20 21 21 21 21 20
5 3 6 7 6 7 9 10 7 5 8 7 9 9 3 6 1 5 4 1 2 4 2 4 6 6 7 8 9 9 2 10 11 10 10 11 12 13 18 21 22 23 20 20 25 24 23 21 20 20 20 19 19 19 19 19 19 20 20 20 19 18 17 15 15 14 12 10 10 9 8 8 8 8 9 10 11 12 13 14 16 16 16 16 17 17 17 16 16 17 19 20 21 22 22 22 21
6 5 6 6 8 10 9 7 7 7 7 7 7 3 4 1 1 1 2 2 5 4 4 6 7 6 7 7 6 6 3 10 11 11 12 12 12 15 19 21 22 23 19 20 25 24 23 22 20 20 20 18 18 18 17 18 19 19 20 20 19 19 17 16 15 13 12 11 10 10 8 8 8 9 9 10 11 12 12 12 15 16 15 16 16 16 16 16 16 18 19 20 21 22 22 22 22
9 9 8 8 9 9 8 6 7 8 7 7 4 5 2 3 4 3 2 3 4 5 5 6 5 2 6 4 0 1 5 8 8 8 11 10 11 18 21 22 23 23 20 21 23 22 23 23 21 20 19 17 16 16 16 17 17 18 19 19 20 18 18 16 14 13 12 12 11 10 9 8 9 9 9 9 10 11 11 11 13 15 14 15 15 15 15 15 16 17 18 19 20 21 22 23 23
9 8 10 10 9 5 5 6 6 8 7 7 3 6 2 1 5 1 2 3 5 6 6 7 4 3 3 4 5 1 5 5 6 6 11 11 13 21 22 23 23 22 22 22 20 19 23 23 22 21 19 17 16 16 15 16 17 17 18 18 19 18 17 16 15 14 13 12 12 10 9 9 10 10 11 10 9 10 10 10 13 14 15 13 13 14 13 13 14 16 17 18 19 20 21 23 23
6 8 9 11 11 6 6 7 7 8 9 9 4 5 4 3 4 2 3 4 5 6 6 8 6 5 5 6 7 7 6 3 6 7 10 12 17 22 23 23 22 21 22 23 20 18 23 24 21 21 18 17 16 15 15 15 16 17 18 18 18 17 17 16 15 14 13 12 11 11 11 11 12 12 12 12 11 10 10 11 13 14 14 13 12 12 12 13 15 16 16 17 19 20 21 22 23
6 8 9 10 10 6 7 7 8 8 4 5 6 4 5 4 4 4 4 4 5 6 7 7 7 4 5 6 6 9 6 4 6 8 11 15 20 22 22 22 22 22 21 22 20 20 24 23 21 21 18 17 16 14 14 15 16 17 17 18 17 17 17 16 15 14 13 11 11 12 13 13 13 12 11 11 12 12 12 13 14 13 13 14 13 12 12 13 15 16 17 18 19 19 20 21 22
8 10 9 8 6 6 7 7 8 7 2 1 4 5 5 4 4 6 4 3 3 3 7 7 8 6 5 7 5 7 5 5 6 10 14 18 21 20 20 22 23 23 21 20 20 22 24 22 21 20 19 17 16 15 15 15 16 17 18 17 17 17 16 15 15 14 13 12 12 14 14 14 12 10 9 8 9 11 13 15 14 12 13 14 13 12 13 14 16 17 18 18 18 19 19 20 21
10 11 9 7 6 6 7 8 8 9 4 2 2 3 2 5 5 6 5 5 4 4 8 6 9 8 6 8 7 7 5 5 9 13 16 20 19 18 20 23 22 21 22 20 21 24 24 23 22 20 19 18 17 15 15 15 16 17 18 18 17 17 17 16 15 14 14 14 15 16 15 13 11 9 7 6 8 11 14 17 15 13 13 13 12 12 13 16 17 17 17 17 17 18 18 19 20
11 11 7 5 7 7 7 8 7 6 3 2 2 2 2 3 4 6 6 6 4 6 7 6 10 8 7 10 9 7 6 9 13 14 17 19 18 18 21 24 21 20 21 19 22 26 24 23 22 20 19 18 17 16 15 15 15 17 18 18 18 18 18 17 16 15 15 16 16 15 13 11 9 8 7 7 8 11 15 17 15 15 14 14 12 12 14 16 17 16 16 17 16 17 17 18 19
10 10 8 6 7 7 7 7 7 5 3 2 2 2 3 3 5 6 6 7 6 7 6 7 10 8 7 9 8 7 9 12 15 16 18 18 17 18 22 23 20 20 19 18 24 27 25 23 21 20 20 19 18 16 16 15 15 16 17 18 18 17 17 17 16 16 16 17 16 14 12 11 9 9 8 7 7 10 15 16 15 15 14 14 13 13 15 16 16 15 16 16 16 16 16 17 18
9 7 7 7 6 7 6 7 6 3 5 4 3 3 4 4 5 5 5 6 5 7 8 9 9 11 8 8 9 9 13 14 16 17 18 17 16 18 21 22 20 19 17 20 26 26 24 24 22 21 20 19 18 17 16 16 15 16 17 17 17 17 17 16 16 16 16 15 14 13 12 11 11 10 8 7 7 9 14 17 15 14 13 14 14 14 16 16 15 14 15 15 15 15 15 16 16
10 6 6 7 6 8 7 7 4 1 2 4 5 4 3 3 4 5 6 7 5 7 9 10 9 9 6 9 11 11 15 16 16 17 17 16 16 18 19 21 20 19 18 21 25 25 24 24 23 22 21 20 19 18 17 16 16 15 16 16 16 17 16 16 16 16 15 14 14 13 13 13 12 11 9 7 7 9 14 17 15 14 14 14 13 14 16 16 15 14 14 14 14 14 13 13 13
11 7 7 6 7 8 7 7 4 4 4 5 6 3 3 2 4 6 7 8 7 5 3 6 8 7 9 9 9 12 16 16 16 17 18 16 16 18 18 20 20 19 19 20 23 25 24 23 23 22 22 22 21 19 18 17 16 15 15 14 15 16 17 17 16 16 15 15 14 14 13 13 13 12 9 8 8 9 13 16 15 13 13 13 12 14 16 16 16 14 13 13 13 13 12 11 11
11 9 7 6 7 8 7 8 5 5 3 9 5 2 3 1 2 5 6 7 3 1 2 4 8 5 7 5 7 14 18 18 17 18 19 17 17 18 19 19 18 18 19 20 22 23 24 24 23 23 23 23 22 20 19 18 17 15 14 14 16 17 17 17 17 17 16 15 14 14 14 14 13 13 10 9 9 9 11 14 14 12 11 11 11 14 17 16 16 15 14 13 12 12 11 10 10
10 8 5 6 8 7 6 7 4 4 3 8 5 1 4 1 0 4 3 6 3 2 5 5 4 3 8 6 10 19 20 19 19 19 19 19 19 19 20 19 17 18 19 21 22 22 24 23 22 24 24 23 22 20 19 19 17 16 15 15 17 18 18 17 17 16 15 14 14 14 14 14 14 13 12 10 10 9 11 12 13 12 11 10 10 13 15 15 15 14 13 12 11 10 9 9 10
9 8 7 6 8 7 4 7 4 1 4 7 4 3 4 2 1 3 0 7 6 4 8 5 3 7 8 8 16 23 22 21 20 20 21 20 20 19 20 19 17 19 20 22 22 23 23 21 21 23 23 22 21 20 20 19 18 17 16 16 17 18 18 17 16 15 14 14 14 14 15 15 14 14 13 11 10 10 11 12 11 10 11 10 10 11 12 12 12 12 11 10 10 9 8 7 8
8 7 7 6 7 4 2 2 2 3 3 6 3 2 3 4 3 2 3 9 6 5 7 6 6 9 8 10 20 23 22 22 21 21 21 21 20 21 22 20 18 19 21 22 22 23 23 21 21 22 22 21 21 21 21 20 19 18 17 17 17 17 17 17 16 15 15 15 15 17 17 17 16 15 15 13 12 11 11 11 9 8 8 8 9 10 10 10 9 9 9 8 8 8 7 6 5
10 7 6 8 6 2 5 5 6 5 4 4 3 3 4 4 3 3 5 7 8 8 8 8 8 11 10 14 19 20 22 22 22 22 20 20 20 21 22 20 18 20 22 22 23 23 23 24 23 23 24 23 21 21 21 21 20 19 17 17 17 17 18 17 17 17 17 17 18 19 19 19 18 16 15 15 14 13 12 11 9 7 6 6 8 10 10 9 7 7 6 6 5 5 5 4 4
11 8 6 7 3 4 3 3 4 5 6 5 5 4 5 5 3 5 6 5 7 9 9 10 12 14 13 15 18 20 22 22 22 22 20 19 20 20 20 19 19 21 21 21 23 22 22 24 23 24 25 24 23 22 21 21 20 18 17 17 18 18 19 19 20 20 19 20 20 20 19 18 17 16 16 15 14 13 12 11 9 7 5 4 6 8 8 8 7 7 6 6 5 3 3 4 5
9 9 9 5 6 4 1 1 3 4 6 7 6 5 7 5 5 7 7 7 8 9 9 10 14 17 15 17 19 20 21 22 23 22 22 21 20 20 19 19 19 19 19 18 19 20 20 21 23 24 24 23 22 21 21 20 19 18 17 18 18 18 19 20 21 20 20 20 19 19 18 18 18 17 16 15 14 13 12 10 8 6 5 4 4 5 5 5 5 6 6 6 4 4 5 7 7
8 8 13 9 6 5 1 0 3 3 7 8 7 8 7 6 7 9 8 8 4 6 9 9 14 20 18 20 20 21 22 23 24 23 22 21 20 19 18 18 18 17 16 17 17 19 20 21 22 21 21 21 19 18 18 18 19 18 18 19 19 19 19 19 20 20 19 19 18 18 18 17 18 17 16 14 13 12 11 9 8 6 4 5 5 5 4 3 5 4 4 4 4 6 7 7 6
8 8 12 11 8 7 3 3 5 5 8 8 8 8 7 8 9 8 7 8 6 2 7 6 13 20 19 21 21 23 25 24 25 23 21 21 21 19 18 18 18 17 16 18 17 17 18 18 18 17 18 19 17 17 17 16 18 18 17 18 18 19 20 19 20 20 19 19 18 18 18 17 17 18 18 16 13 12 11 9 8 8 6 7 7 6 6 5 6 6 5 5 6 7 7 6 7
10 8 9 8 8 10 9 8 8 8 9 9 9 9 8 10 9 6 7 9 5 2 6 6 14 21 19 19 20 23 24 24 23 22 21 21 20 19 18 17 17 16 17 18 17 16 16 16 16 17 18 18 16 16 15 16 17 17 17 17 18 19 19 19 21 20 19 19 18 18 19 18 19 19 20 18 14 12 11 9 8 9 7 8 10 8 8 8 8 8 7 7 6 7 8 8 8
12 11 9 7 7 9 10 9 10 10 10 10 10 11 10 11 11 8 10 10 4 3 7 8 13 18 17 18 20 21 22 22 21 20 20 19 19 18 17 17 17 17 18 18 17 17 16 17 18 19 20 19 17 16 15 15 15 15 17 17 17 19 20 20 21 20 18 18 17 17 18 18 19 19 19 18 14 12 12 11 10 10 9 9 11 10 9 9 8 8 8 7 6 7 7 7 7
9 13 12 10 10 9 10 10 11 10 10 10 10 11 10 11 11 9 14 9 3 5 6 7 11 15 15 16 19 20 20 21 19 18 19 18 18 19 17 16 16 17 18 18 18 17 16 17 18 19 20 19 18 17 15 14 13 13 15 17 16 16 19 19 20 19 17 17 17 17 17 18 18 17 18 16 13 13 13 13 11 11 10 9 9 9 8 7 6 6 6 6 5 6 6 7 6
3 9 12 12 12 11 10 11 11 11 10 10 10 11 11 11 10 9 11 5 4 7 10 7 9 14 16 16 18 18 19 19 19 19 19 18 19 19 18 18 18 17 19 20 19 18 18 19 18 18 19 19 18 16 14 14 14 11 11 14 14 15 17 17 19 18 18 17 16 16 16 17 16 15 15 14 13 13 13 12 11 10 9 8 8 8 8 7 6 6 6 6 6 6 5 6 7
5 7 9 11 14 13 12 11 11 11 9 10 12 11 11 11 11 11 7 7 5 8 13 14 13 14 15 15 16 17 18 19 19 20 20 19 20 20 20 20 20 18 17 18 18 19 20 21 20 19 18 17 15 15 15 15 13 10 10 12 14 16 16 16 17 17 17 16 15 16 17 16 13 13 15 13 12 12 11 11 10 9 8 8 8 8 8 7 6 7 8 9 9 8 7 7 7
8 7 9 11 13 13 14 13 11 11 8 8 8 8 11 11 14 16 9 7 8 8 11 15 14 14 13 14 16 17 17 19 20 20 21 20 19 20 20 19 20 18 16 17 18 19 21 21 21 20 18 16 15 15 16 15 12 8 11 12 13 16 14 15 15 16 17 16 16 17 17 16 11 12 15 14 12 11 11 10 9 10 9 9 9 8 8 8 7 7 8 8 8 8 7 7 7
9 9 9 9 10 11 15 14 10 11 8 5 5 7 10 12 18 21 12 9 9 9 11 12 13 13 13 14 15 16 17 20 21 19 20 21 19 19 20 18 19 18 16 17 18 18 20 20 20 19 18 17 17 17 16 16 13 10 12 12 14 14 12 13 14 14 14 13 15 16 16 15 11 11 13 13 12 10 10 10 8 9 9 9 8 8 8 7 7 8 6 6 7 7 6 7 6
8 9 8 7 8 6 11 11 8 9 7 8 8 7 8 13 21 20 12 11 12 11 12 14 15 14 13 15 15 16 18 19 19 17 19 21 19 20 20 19 20 20 18 18 17 17 18 19 19 19 18 18 18 19 17 17 15 11 12 13 13 12 11 13 14 15 14 12 14 16 15 14 12 12 12 12 12 10 9 9 8 9 9 9 8 8 8 7 8 8 6 6 7 6 6 7 6
8 8 7 8 8 4 11 10 8 7 5 10 11 7 9 12 15 16 11 12 13 11 11 11 14 14 14 16 16 17 17 17 17 17 17 19 20 19 18 20 22 21 19 18 18 16 16 17 19 19 18 18 19 18 16 17 17 13 12 12 12 12 13 14 14 15 15 13 12 14 15 15 13 13 12 12 12 10 8 8 8 9 9 9 8 9 8 7 8 8 8 8 7 6 7 7 6
7 8 7 7 8 6 8 10 10 6 2 9 11 8 9 11 10 16 12 13 14 13 13 12 12 12 14 16 17 17 16 17 17 16 16 18 19 18 16 20 23 21 18 18 18 16 16 17 18 18 18 18 18 17 16 17 19 17 12 12 14 14 14 14 14 14 13 12 11 12 14 15 13 13 12 12 11 9 8 8 9 10 9 9 9 10 8 7 8 8 8 8 7 6 7 7 6
7 7 7 6 7 6 4 8 10 7 6 8 10 9 11 13 5 11 11 14 16 16 15 16 14 14 16 15 16 16 16 16 15 14 16 17 17 17 16 19 23 22 18 17 18 17 17 18 18 19 18 19 18 18 19 19 20 19 14 13 16 15 14 14 13 13 13 13 13 12 13 14 13 12 11 11 11 10 8 9 10 9 8 8 8 9 9 8 8 8 8 8 8 7 6 6 6
8 9 7 7 7 7 6 4 7 8 7 8 9 9 12 16 5 5 9 14 16 17 15 16 17 17 16 15 15 14 14 14 13 13 15 16 16 17 18 18 21 21 17 16 17 19 19 18 19 19 19 20 20 20 20 20 20 20 16 16 17 15 14 14 13 13 13 14 14 12 13 14 13 12 10 10 11 10 8 9 10 8 7 8 7 8 9 9 9 8 8 8 8 7 6 6 5
7 7 8 8 7 8 7 2 5 4 6 8 9 9 11 14 12 8 10 13 16 16 14 13 14 16 18 17 14 13 12 12 13 14 14 15 16 16 18 17 18 19 18 17 19 21 22 21 20 20 19 20 21 22 21 20 21 20 18 18 17 14 15 14 13 13 13 15 14 12 13 12 11 11 10 10 10 9 8 9 9 7 8 8 8 9 8 9 10 8 7 7 8 7 6 6 6
7 7 5 8 8 6 6 4 3 2 5 8 9 11 12 12 15 12 10 13 15 16 14 12 13 18 21 18 14 12 11 11 12 13 14 16 16 16 16 16 17 18 18 19 21 24 25 24 22 21 19 19 21 22 22 21 21 19 19 19 16 13 14 13 14 13 11 13 13 11 11 11 11 11 10 10 10 11 10 10 9 8 8 8 9 10 9 9 9 8 7 7 8 7 5 5 6
7 9 7 8 8 8 7 5 4 4 4 8 9 11 13 13 13 12 11 12 13 17 17 14 16 19 16 14 15 15 13 12 13 14 15 17 17 17 17 16 17 19 19 20 24 25 24 24 21 20 20 20 22 23 22 20 19 19 19 19 15 13 14 13 14 13 11 12 12 11 11 11 10 10 10 10 10 11 10 9 9 9 8 8 9 10 9 10 10 9 7 7 7 7 7 6 6
8 8 9 8 7 10 7 6 5 6 4 6 9 10 11 13 12 13 14 12 12 19 20 17 20 19 17 18 16 18 14 14 14 14 17 20 19 19 18 18 18 19 21 22 24 24 24 23 20 20 22 22 23 23 21 20 19 20 19 18 15 15 15 13 13 13 12 12 13 12 10 10 9 8 9 9 8 9 7 7 9 9 9 9 9 9 9 10 11 10 8 7 7 7 7 7 6
9 8 9 8 9 12 6 4 6 6 5 8 10 8 8 10 11 13 16 15 14 19 22 21 21 19 21 24 16 19 16 17 15 16 19 22 21 21 20 20 20 19 22 24 24 24 24 23 22 21 22 23 24 23 21 20 21 21 19 17 15 15 15 13 12 12 11 11 12 11 9 8 8 7 8 8 8 8 7 7 8 9 9 9 9 9 10 11 11 10 9 8 8 6 6 6 6
10 11 10 9 11 13 6 4 5 5 8 9 9 8 7 10 12 12 14 16 15 16 20 23 23 21 21 24 18 22 24 22 19 19 22 24 24 24 22 22 21 22 24 27 26 25 23 22 22 21 21 22 22 21 21 21 21 20 19 17 15 15 15 13 12 12 12 12 10 9 8 8 8 8 8 8 8 8 8 8 8 9 9 8 9 8 9 10 10 10 10 10 9 7 5 6 7
9 11 13 13 12 12 7 7 7 6 9 10 11 9 7 11 15 15 13 14 16 16 18 20 24 24 22 23 20 22 27 24 21 21 23 24 24 24 24 23 23 24 26 28 28 25 22 21 22 21 19 19 19 19 20 21 19 19 19 16 15 15 15 14 13 12 12 12 9 8 9 8 8 8 8 8 8 9 8 8 7 8 9 8 8 8 8 9 9 9 9 9 9 8 7 5 5
8 9 12 13 11 11 10 12 10 7 8 6 9 9 7 9 12 13 13 14 16 16 15 18 22 23 23 24 22 20 25 22 19 19 21 23 23 24 25 26 27 27 26 25 24 24 22 21 20 20 18 18 18 19 19 19 18 18 16 14 15 15 13 13 12 11 11 11 10 9 10 10 8 8 9 8 9 9 8 8 7 7 8 8 7 7 8 8 8 8 8 9 8 7 7 7 6
9 6 6 9 10 11 12 12 10 8 9 4 6 9 9 8 8 7 9 13 15 14 14 17 20 21 22 23 23 21 23 23 21 21 22 24 24 24 26 26 27 26 23 22 22 23 24 22 19 18 18 17 16 18 19 18 17 17 14 13 14 14 13 12 11 10 10 10 10 10 9 10 9 9 9 9 8 8 8 8 8 7 7 7 7 7 8 8 8 8 8 9 9 8 8 7 6
9 4 2 6 9 11 11 10 9 9 10 7 8 10 8 8 8 7 9 12 12 13 14 16 18 22 23 23 25 22 19 25 24 23 24 26 26 25 24 24 23 23 23 24 24 23 22 21 21 19 18 15 14 17 18 16 15 15 14 13 13 13 13 12 10 11 10 8 9 10 9 9 9 10 9 8 8 8 9 8 8 7 7 7 7 7 7 7 8 8 8 9 10 10 9 8 6
9 3 4 8 9 10 10 9 9 9 10 10 10 10 8 8 8 8 10 12 11 11 11 7 7 12 16 16 20 24 21 25 24 21 22 24 25 23 21 18 14 13 17 18 16 18 17 16 17 16 15 14 13 15 15 14 15 15 15 14 14 13 13 12 11 11 10 9 9 11 11 10 10 11 10 9 9 8 8 8 7 7 8 7 7 6 7 7 8 8 8 9 10 10 10 10 9
6 2 6 10 9 9 9 7 8 8 9 11 13 15 11 8 8 5 3 3 5 5 2 4 7 6 7 9 13 21 21 19 20 18 18 17 16 15 14 13 12 19 13 8 6 10 15 13 10 10 13 14 14 15 15 16 17 15 15 16 15 15 14 14 13 12 12 11 11 11 11 10 10 10 11 11 10 8 8 8 7 7 8 7 7 7 6 7 7 7 8 9 9 9 9 10 10
7 5 7 9 7 8 7 7 7 7 8 10 14 17 13 9 7 2 3 4 3 3 3 4 9 10 10 11 15 18 12 14 14 14 14 13 12 10 9 10 11 14 8 6 6 9 17 17 12 10 14 15 17 17 17 19 18 16 17 17 17 16 15 15 14 13 13 13 12 12 11 11 10 10 10 10 10 9 9 9 8 8 7 7 7 7 6 6 6 6 6 7 8 9 9 8 8
9 8 8 8 7 7 7 7 7 7 9 9 10 11 10 8 5 1 4 5 7 6 6 7 9 11 14 14 17 19 10 13 14 12 13 14 13 11 10 9 11 11 9 15 13 16 25 25 18 16 16 16 18 19 19 21 19 18 18 18 18 18 16 15 13 13 14 13 13 12 12 11 11 11 10 9 10 11 11 10 8 7 7 7 7 6 7 7 7 6 6 6 7 8 8 8 8
10 9 8 8 7 6 7 7 7 7 9 9 6 4 6 7 1 6 8 7 6 5 6 5 6 9 14 15 15 17 11 12 15 13 14 16 14 13 11 10 10 8 11 18 17 17 22 26 24 21 19 18 18 20 22 23 21 19 20 20 20 19 18 16 14 14 15 13 13 13 12 11 11 11 11 10 12 12 10 10 8 7 7 7 7 6 7 7 7 6 5 6 6 6 7 8 7
11 10 9 9 7 6 6 6 6 7 7 8 7 5 7 6 1 8 8 6 4 4 6 3 3 5 9 11 12 13 9 9 13 12 12 14 14 13 10 10 9 6 10 17 18 18 19 22 24 22 21 20 19 20 24 25 23 22 22 22 22 21 19 17 15 16 16 14 13 13 12 11 10 11 11 11 13 12 10 11 10 9 9 8 7 6 6 7 7 6 6 6 6 6 6 7 6
9 9 10 9 8 7 5 5 5 4 5 5 6 6 4 2 3 5 6 6 7 6 6 5 2 1 3 5 9 11 9 8 10 11 11 12 14 13 10 10 10 9 12 16 17 19 19 18 20 20 19 20 19 21 25 26 25 24 25 25 25 23 21 19 17 17 18 16 14 13 12 10 11 11 11 12 12 11 11 10 8 9 9 8 9 7 5 6 7 6 6 6 6 6 6 7 6
5 8 10 9 9 8 7 6 5 4 6 6 6 6 3 5 3 3 6 6 7 6 5 7 5 2 2 0 5 7 8 9 9 9 10 11 14 13 9 9 11 13 15 16 16 18 17 18 20 19 19 20 21 22 26 27 26 26 27 26 26 26 23 20 18 18 19 17 14 13 12 11 11 11 12 13 12 10 9 8 7 8 10 10 9 7 5 5 6 6 6 6 6 6 6 7 6
5 6 7 8 9 7 5 6 6 6 8 7 8 10 6 4 3 0 4 5 7 6 6 6 6 6 7 7 3 2 4 7 8 8 9 9 11 10 9 9 11 12 13 14 15 16 16 18 19 18 19 22 23 23 27 29 27 28 28 28 28 27 24 21 18 17 19 17 14 14 13 12 12 12 12 13 12 10 9 9 7 8 10 11 9 7 6 5 5 5 5 5 6 6 6 7 7
12 6 5 5 7 6 6 6 6 7 7 6 9 10 4 1 2 2 1 3 6 5 5 6 6 10 10 8 6 3 4 6 7 8 8 7 6 6 9 12 11 12 12 12 13 14 15 16 17 17 18 23 24 23 27 29 28 29 30 30 30 28 25 23 19 17 18 17 15 14 14 13 13 12 13 13 12 10 10 9 8 7 10 11 10 8 8 7 6 6 6 5 6 6 5 6 6
13 10 7 6 6 5 5 5 5 7 7 6 9 8 1 4 3 4 2 3 5 4 4 5 7 12 14 9 6 5 6 6 7 8 7 6 6 6 8 11 12 12 12 13 12 13 14 15 16 16 17 21 23 23 25 27 28 30 31 31 32 29 26 24 21 19 18 17 15 15 14 14 13 12 13 13 12 11 11 10 8 7 8 10 10 10 9 8 8 7 7 6 6 5 4 4 6
11 9 8 8 6 5 5 4 4 7 6 5 7 5 3 3 3 3 4 3 4 4 3 4 9 14 16 16 15 13 12 10 10 8 6 6 5 6 8 9 10 10 11 11 11 12 14 14 15 16 17 20 23 23 25 27 29 31 32 33 33 29 27 25 22 20 19 17 16 15 15 14 13 12 12 13 12 11 11 10 8 7 8 10 11 10 10 10 9 8 7 7 7 6 5 5 5
10 9 10 10 8 6 7 6 6 6 6 6 6 1 4 3 3 3 3 3 4 6 5 7 13 16 17 17 16 15 15 14 12 10 9 8 5 5 7 7 7 8 8 9 10 11 14 14 15 17 18 20 22 23 24 27 29 31 33 35 32 28 28 25 23 21 20 18 16 16 16 15 12 12 12 12 12 11 11 10 9 8 8 10 11 11 11 10 10 10 9 8 7 7 6 6 6
Wind_Direction
151 149 147 150 155 222 228 222 242 210 232 256 248 258 232 126 19 275 211 185 235 154 106 306 281 286 266 287 300 310 344 0 3 18 114 112 125 131 137 139 139 145 144 154 161 155 153 153 152 151 149 151 154 158 160 163 165 167 169 168 168 166 167 166 160 154 150 145 135 134 134 137 142 145 146 145 142 140 139 138 136 133 131 125 121 120 121 117 110 108 107 105 100 97 95 93 93
134 158 154 160 190 236 228 210 248 232 219 248 243 243 115 99 199 239 206 145 13 71 29 285 280 274 268 288 286 277 0 52 48 74 101 123 131 133 139 137 141 147 147 153 158 156 153 154 152 150 150 151 154 158 160 164 168 170 171 171 171 168 169 168 162 157 154 149 140 139 143 147 148 148 150 146 141 142 142 141 140 136 132 128 125 125 124 119 114 115 110 105 101 98 96 94 92
160 206 178 186 214 235 246 215 243 255 232 253 245 183 96 186 202 162 93 10 359 2 291 277 269 255 239 237 242 253 92 69 65 89 112 132 138 145 146 138 141 149 151 150 156 159 155 154 153 150 149 149 151 154 158 165 170 172 173 173 172 170 170 168 164 159 155 150 145 147 149 150 149 151 151 143 139 140 143 144 141 136 133 130 126 126 126 123 118 118 113 107 103 100 99 96 94
167 199 199 218 219 218 241 226 237 259 252 260 259 87 80 259 77 69 17 328 314 281 270 271 256 223 243 243 279 252 79 74 69 93 129 141 148 149 148 139 140 146 149 146 153 160 156 153 153 151 148 147 147 149 154 162 170 173 175 174 173 172 170 169 164 159 155 151 149 149 150 149 146 145 139 135 137 141 145 145 142 136 133 128 124 123 125 126 122 120 115 110 106 103 101 99 97
161 202 211 227 234 233 246 235 238 252 254 267 295 83 87 42 70 31 303 281 258 248 249 256 243 140 220 15 18 349 74 92 80 97 133 137 148 147 145 140 139 143 145 147 154 158 156 153 152 152 148 146 144 146 151 158 166 171 175 175 174 173 170 169 165 161 156 153 154 154 156 151 145 140 134 139 145 147 151 148 144 135 130 129 124 122 125 130 127 122 116 112 109 107 104 102 101
166 215 213 232 254 286 267 240 235 242 249 264 292 81 81 35 30 330 277 257 243 250 241 243 247 171 152 72 50 42 55 110 98 114 134 138 148 146 145 142 139 142 144 148 153 156 155 152 152 151 148 147 146 146 148 153 161 168 173 174 175 172 170 169 166 164 160 161 162 161 157 149 146 145 145 156 160 160 166 154 141 132 129 131 130 130 133 133 127 123 119 115 112 110 108 106 104
197 211 199 227 245 252 249 243 244 244 232 254 284 23 45 20 350 294 280 259 217 219 221 231 247 196 132 122 86 54 62 94 105 132 140 146 147 144 146 143 139 143 146 147 151 155 153 152 152 152 151 150 148 146 146 150 156 164 170 174 173 170 169 168 167 165 166 168 166 161 153 147 146 149 154 166 175 177 174 154 140 136 135 138 142 144 141 135 129 126 120 116 114 112 110 109 108
222 225 207 226 231 212 238 247 249 253 134 121 300 8 10 328 314 280 285 265 230 201 210 217 229 219 153 148 94 66 87 90 122 138 141 148 145 146 147 143 141 144 148 149 157 158 152 152 154 154 154 152 149 147 146 148 153 160 167 172 171 169 168 167 169 168 167 165 163 159 153 151 148 152 157 164 184 189 173 150 142 145 146 148 151 152 146 137 131 127 122 118 115 113 112 111 110
221 233 222 232 242 219 235 245 244 247 229 112 47 48 327 298 306 281 272 247 255 244 223 213 214 213 151 132 90 91 111 111 133 137 144 147 144 150 145 143 145 146 148 151 165 161 153 155 156 157 156 153 150 149 148 148 152 158 164 169 170 168 167 168 169 168 166 161 160 158 150 152 152 158 156 153 181 189 171 150 147 157 158 155 155 157 148 139 134 129 125 120 118 116 114 113 112
212 226 237 238 249 241 234 241 238 238 229 91 73 42 326 301 293 275 268 256 245 236 229 215 212 203 136 121 101 106 124 130 137 140 147 146 147 150 144 146 147 148 150 155 165 159 155 157 158 160 157 154 152 152 150 149 152 157 163 168 169 167 167 168 168 168 166 160 159 156 149 153 159 159 149 151 177 184 170 154 155 165 163 160 162 162 148 142 138 131 128 124 122 120 118 116 114
214 216 244 251 241 245 240 236 227 203 130 131 153 49 331 299 287 273 266 265 242 232 217 212 212 187 139 120 108 114 130 138 141 144 147 147 148 148 147 147 148 154 155 157 162 159 156 158 160 161 157 155 154 153 151 151 153 157 163 166 167 165 165 166 166 167 164 159 159 157 153 157 160 158 152 159 176 183 174 159 158 165 165 168 168 163 151 145 141 135 133 129 126 123 121 121 117
231 208 224 246 241 243 246 250 237 166 128 183 159 71 315 284 296 286 270 264 233 229 210 210 209 180 164 123 113 128 141 145 145 149 149 147 147 147 148 148 151 158 158 159 161 160 157 159 162 162 159 158 156 155 154 155 153 155 160 162 163 163 164 163 164 166 165 163 160 158 157 159 162 161 160 167 173 181 178 163 156 166 174 175 169 161 153 146 143 142 138 132 129 126 123 122 119
238 234 225 240 253 255 258 263 255 218 201 181 117 64 310 293 318 303 281 263 223 229 210 201 204 169 131 104 120 143 149 148 151 156 152 148 148 147 149 151 154 156 158 161 162 162 161 162 164 163 162 160 159 159 158 157 154 154 155 158 161 162 164 163 162 165 167 166 163 160 159 162 165 165 166 169 168 169 175 165 160 174 181 178 170 160 154 147 147 146 141 135 131 129 125 121 118
235 255 258 251 256 261 265 262 244 248 239 128 96 21 303 315 330 310 288 253 210 225 213 179 197 147 108 109 133 155 155 152 155 157 154 152 149 147 150 153 154 155 158 160 166 168 165 166 166 165 166 163 163 162 160 158 155 154 153 156 159 161 166 166 164 164 167 170 170 167 165 170 172 171 171 171 164 158 169 170 170 178 180 181 172 159 156 151 150 149 145 139 135 134 129 124 120
242 258 267 260 259 256 243 247 259 257 189 111 95 338 291 317 317 301 298 267 218 186 322 173 210 178 144 170 170 166 159 153 157 156 153 151 149 148 150 154 155 158 160 160 167 170 166 169 169 168 167 165 164 162 160 159 157 155 155 157 160 164 168 169 169 170 173 174 174 174 173 177 178 177 177 174 168 156 159 170 180 184 182 186 178 163 159 157 156 153 149 144 142 140 136 134 126
245 264 259 248 254 250 222 219 248 259 144 100 83 31 278 312 31 299 315 273 270 203 240 200 203 116 137 185 178 166 158 154 158 157 152 149 149 148 150 156 160 160 162 162 166 169 167 171 172 171 170 167 165 163 161 159 157 156 157 159 161 166 170 172 174 176 177 175 177 179 178 178 180 180 178 175 172 163 158 167 184 192 193 193 183 172 167 165 164 158 152 148 147 145 145 143 133
234 254 248 241 243 245 211 187 205 257 106 91 63 41 284 317 36 313 233 242 256 213 217 189 134 94 118 168 164 157 154 156 158 157 154 152 152 151 155 160 166 165 165 167 169 172 171 172 172 174 173 170 168 166 164 162 159 157 158 161 163 166 169 172 174 175 173 173 176 174 172 172 174 175 173 173 170 169 167 169 180 191 200 198 185 183 181 177 172 165 158 155 153 152 151 147 139
223 233 237 238 232 249 306 142 54 352 72 66 22 19 304 314 0 326 217 216 219 211 203 174 133 107 111 141 147 151 153 157 160 160 158 156 157 157 161 168 173 170 169 170 172 175 174 172 173 174 173 172 173 170 168 165 159 156 158 160 163 167 169 170 169 169 170 169 167 163 165 166 168 171 171 170 168 171 172 167 170 181 192 195 192 194 199 195 185 178 171 167 161 157 155 151 149
225 231 233 238 236 23 5 6 26 344 356 17 303 339 311 300 347 311 269 222 198 206 195 179 154 125 124 134 141 151 155 160 162 164 161 160 163 162 166 172 175 176 175 174 175 177 175 175 174 174 173 172 174 172 170 165 158 157 160 161 164 169 169 167 165 165 167 166 163 161 164 164 165 171 171 171 172 174 173 170 171 179 190 194 196 198 205 207 205 202 193 188 179 172 161 157 178
226 236 236 239 293 17 22 356 355 332 336 315 295 330 288 280 314 279 289 278 221 211 191 186 168 138 136 144 148 155 159 164 163 165 165 165 168 167 170 173 176 180 181 177 176 176 178 180 177 178 177 175 175 172 169 163 159 159 161 165 166 169 170 168 166 167 166 166 166 165 164 162 164 170 171 172 175 175 177 180 183 194 210 203 197 200 208 213 218 222 216 216 211 182 167 188 208
221 229 242 260 358 324 207 13 323 324 312 299 302 292 273 291 298 269 276 270 232 202 200 203 170 148 150 154 155 160 163 166 167 170 171 173 173 173 177 176 178 181 182 183 178 177 182 184 182 182 178 176 176 169 167 165 161 162 167 170 168 170 174 174 172 169 167 168 168 167 166 163 165 171 170 171 174 175 178 182 188 198 204 194 183 184 207 217 214 230 230 227 216 175 193 212 211
235 232 252 278 326 287 173 67 293 308 291 286 279 272 294 308 275 267 269 269 268 175 204 218 163 151 155 158 161 162 166 173 174 175 175 177 177 178 181 181 182 176 176 182 181 185 186 185 189 187 175 175 178 168 167 168 165 168 173 173 173 177 177 177 176 170 168 170 170 171 170 167 166 166 165 167 171 168 167 169 169 171 168 156 152 156 173 187 178 199 219 206 188 190 213 224 214
245 236 246 261 266 268 291 277 274 288 279 275 275 283 301 288 265 267 264 268 310 151 209 224 145 146 155 159 166 168 172 179 178 178 178 180 179 180 182 183 184 175 176 183 183 189 187 185 190 187 179 180 184 181 175 171 169 172 175 172 174 181 179 177 177 172 172 173 174 173 168 167 166 163 161 163 162 156 158 162 157 151 149 144 141 154 165 163 169 181 192 186 185 194 212 224 220
239 250 245 244 248 261 276 277 274 272 272 275 279 283 278 268 266 276 262 250 272 162 202 211 132 137 156 164 171 173 175 179 180 182 181 182 183 182 183 183 182 180 186 188 185 184 180 184 188 185 186 184 186 191 187 181 179 175 173 174 177 183 183 181 177 177 180 179 181 175 166 171 171 165 163 159 156 159 160 159 152 148 153 156 151 162 172 167 174 179 184 189 186 191 204 211 210
230 249 255 250 247 253 263 265 263 262 266 270 266 265 262 259 269 282 263 245 225 174 192 188 142 138 161 171 173 175 176 180 181 184 184 186 186 183 184 183 179 185 192 190 185 180 171 178 188 187 185 181 181 189 192 191 187 180 175 178 182 184 185 185 182 184 189 185 183 175 169 177 175 167 164 156 155 165 162 155 155 154 158 173 171 170 174 171 173 175 176 180 179 189 202 206 202
221 237 249 250 249 249 253 253 256 259 258 262 260 257 254 251 263 261 245 234 161 188 164 151 154 149 167 178 175 174 176 179 180 186 188 185 185 184 184 183 182 187 192 188 182 177 175 184 188 186 183 180 181 185 193 198 195 191 184 180 183 186 187 189 187 188 192 188 183 177 174 178 174 170 163 153 158 167 166 163 163 167 171 185 185 175 175 169 172 176 171 173 181 192 203 201 200
231 242 252 254 258 257 253 254 255 260 257 253 255 255 252 246 250 239 219 187 172 193 137 147 188 157 167 181 173 174 176 179 182 188 190 185 187 186 182 188 191 190 192 187 181 179 183 191 189 183 185 184 184 184 187 201 202 192 186 181 183 188 187 189 189 189 189 187 188 184 179 176 172 170 155 148 163 165 165 167 165 174 182 186 180 176 179 174 174 183 177 179 187 190 202 202 198
272 257 262 255 257 255 246 247 246 250 251 243 248 255 252 242 241 239 200 151 210 206 152 175 197 162 167 178 172 177 179 183 188 188 190 188 190 189 188 196 196 189 188 184 182 183 182 188 189 186 190 189 190 190 192 207 206 189 191 191 190 189 186 190 190 188 185 184 190 190 183 176 172 167 153 151 162 158 160 166 165 171 177 182 180 179 187 181 179 197 197 192 192 189 194 204 199
257 250 262 252 245 244 234 232 232 237 238 232 247 257 243 229 231 235 203 162 209 209 173 177 180 166 168 172 176 184 184 186 191 192 193 193 194 193 191 197 196 187 184 183 185 185 180 184 188 189 197 197 196 197 200 210 204 198 214 207 198 192 183 187 186 185 188 186 188 190 183 175 170 170 162 157 156 156 166 165 167 173 173 184 188 186 192 187 188 210 211 202 201 196 195 203 202
247 238 252 254 243 237 221 215 218 234 234 217 238 253 234 212 220 226 194 174 208 202 186 176 170 169 167 174 183 186 188 191 194 197 198 198 199 196 193 195 194 186 181 183 185 184 179 179 184 189 197 200 202 200 204 212 199 197 224 212 198 195 182 182 183 185 191 188 187 189 183 173 168 174 170 163 159 161 169 166 169 177 179 189 194 194 194 191 198 211 207 207 209 203 203 203 202
240 233 227 241 253 223 182 183 202 221 200 190 224 252 242 216 208 209 188 186 212 206 191 180 174 172 172 181 187 188 193 197 198 203 203 201 201 199 198 197 193 191 190 188 186 186 181 178 182 188 193 199 205 203 205 214 199 190 222 214 199 202 194 189 189 187 189 189 190 188 183 176 171 174 175 173 170 164 168 169 171 182 188 190 193 199 194 193 205 204 190 203 210 197 206 208 201
226 234 219 220 240 184 144 163 205 220 172 181 218 242 252 241 192 174 183 199 212 206 189 187 179 175 180 185 190 192 195 200 202 207 205 201 202 200 202 202 198 196 197 195 191 189 186 184 187 190 194 197 200 205 209 214 203 192 214 216 206 212 202 192 191 190 190 188 191 190 184 179 176 180 182 184 179 167 173 176 179 195 199 195 200 204 197 198 208 204 192 198 203 197 205 204 198
209 227 238 213 214 206 152 165 197 221 219 188 213 238 252 256 174 156 186 206 217 208 180 181 181 181 192 193 194 193 193 199 204 207 203 200 202 205 209 206 202 200 197 198 196 192 194 194 194 195 197 197 197 206 213 213 209 198 200 213 216 215 202 194 194 192 190 183 189 198 190 181 183 190 188 191 183 169 180 187 195 207 202 202 210 204 197 201 212 211 204 200 193 197 209 203 198
201 211 247 231 217 241 169 154 171 192 230 210 216 236 251 260 172 143 193 208 219 221 189 171 174 192 204 201 196 192 191 196 200 205 203 202 203 208 213 205 203 204 197 196 196 195 199 200 199 199 198 197 197 206 210 208 210 204 196 211 218 210 197 196 196 193 195 192 191 196 194 185 188 194 190 193 186 173 183 192 207 216 202 211 216 199 196 197 208 210 204 206 198 194 208 206 196
217 202 228 234 216 247 248 157 146 177 220 228 227 229 243 260 258 139 202 210 214 229 213 178 175 194 206 206 197 190 192 191 195 202 201 201 200 202 205 203 203 206 201 193 192 198 204 205 205 205 201 199 202 209 210 206 209 209 205 214 219 208 198 199 200 198 201 203 198 196 197 192 196 200 191 195 190 179 189 198 211 215 200 220 217 194 198 197 201 203 199 209 206 200 202 196 192
269 227 221 238 224 228 237 160 124 172 230 235 237 241 240 248 251 223 202 206 211 227 232 200 184 197 207 208 193 184 192 193 195 195 193 196 194 193 196 199 198 199 202 193 189 201 208 209 208 207 203 204 208 208 207 207 208 211 211 216 218 211 204 204 205 202 199 202 200 198 200 194 200 203 193 198 194 182 192 204 215 208 194 215 206 187 197 199 198 200 200 205 205 209 202 193 198
300 276 240 248 251 237 224 189 167 200 250 246 241 250 251 246 252 243 208 205 211 221 228 211 206 215 213 202 179 178 190 197 204 194 191 196 191 189 188 190 192 192 197 195 195 203 207 208 207 203 200 203 210 207 205 206 207 208 210 212 213 209 209 209 207 202 200 204 196 193 200 192 198 203 195 200 197 190 197 204 212 204 192 205 197 186 193 195 194 194 194 196 199 205 201 197 200
261 266 256 242 245 247 226 177 187 210 235 254 247 247 251 247 252 255 231 213 210 221 223 210 218 229 232 215 178 173 187 195 203 191 191 202 195 191 186 184 192 192 194 200 206 209 208 208 204 200 200 205 212 210 208 208 206 210 211 209 208 203 204 207 206 201 204 208 195 195 203 195 200 206 199 203 201 198 201 198 199 198 193 198 196 191 191 191 193 191 188 192 194 196 199 202 192
250 254 254 249 240 245 228 155 196 233 236 255 252 249 251 245 244 251 247 230 215 224 224 217 222 222 232 235 186 162 187 201 202 197 198 205 200 196 193 189 194 196 198 206 212 214 213 208 203 205 205 208 213 209 211 215 211 213 211 205 203 201 203 206 208 206 210 213 201 200 206 199 203 202 194 200 199 196 197 195 195 195 195 197 198 193 187 191 195 189 184 189 191 193 201 204 191
248 245 245 246 241 248 241 185 214 227 239 262 268 263 255 251 243 242 244 235 221 222 222 221 226 219 220 230 194 156 188 208 202 202 204 207 203 199 199 197 197 197 202 209 213 214 214 210 205 205 201 203 209 206 210 216 214 212 208 204 202 201 202 204 208 208 212 217 209 203 203 199 198 193 190 191 193 195 193 197 199 197 199 198 199 191 187 197 199 189 186 186 185 191 201 201 192
232 237 248 249 249 257 251 218 226 222 233 244 262 270 253 246 243 238 238 232 223 224 225 220 224 226 225 231 210 169 185 205 201 200 207 208 203 200 201 202 201 202 208 214 214 211 210 210 207 201 196 198 201 203 205 207 210 208 202 201 200 196 197 200 202 203 209 214 208 200 197 193 190 191 189 182 193 202 194 198 198 193 197 197 197 191 191 204 201 191 193 188 184 184 191 201 196
231 224 238 248 261 271 261 247 250 247 246 225 222 246 249 234 234 232 227 224 220 220 227 223 220 223 225 233 223 180 178 195 198 199 206 207 205 203 202 203 204 206 214 218 220 217 212 210 207 200 198 195 194 200 202 201 206 206 200 198 196 190 193 197 196 198 206 205 197 193 191 183 181 189 184 179 197 200 189 197 195 187 193 196 201 198 195 205 198 193 199 193 191 189 182 192 201
247 223 227 239 256 266 256 253 253 250 267 238 205 233 264 245 235 227 220 224 221 211 220 230 224 221 222 228 228 198 177 185 202 204 207 211 209 206 204 206 208 209 214 219 221 220 214 207 201 197 198 197 196 199 201 202 204 204 200 198 193 188 192 196 193 198 203 196 190 191 185 175 179 193 186 185 199 193 183 193 192 188 193 195 203 205 202 203 192 190 198 192 194 198 188 185 189
246 232 223 232 243 250 245 246 249 249 263 254 194 231 267 264 251 227 216 232 231 212 214 228 227 224 225 226 232 220 183 182 208 209 210 217 212 209 210 209 210 209 210 213 212 210 210 206 196 196 200 197 195 190 189 196 201 199 193 189 190 189 193 193 188 199 202 192 186 183 179 174 180 192 190 190 196 188 185 192 192 189 193 195 198 202 205 204 193 193 202 195 188 193 199 192 179
247 236 221 246 249 250 245 240 242 246 253 247 215 227 253 260 257 231 215 231 236 227 222 222 224 225 226 225 232 232 188 173 193 200 208 218 216 214 212 211 215 214 209 206 204 203 206 200 190 193 198 190 187 184 183 191 198 193 183 185 194 193 194 192 191 200 195 189 185 172 167 173 181 186 185 190 190 186 189 194 194 189 191 195 191 196 200 199 200 202 209 207 197 195 203 196 177
252 239 213 246 253 249 247 244 243 241 244 252 241 232 241 253 255 238 223 221 223 236 234 227 236 233 236 237 235 237 211 178 176 189 206 215 217 216 214 217 212 193 194 195 195 201 201 185 174 186 194 187 188 186 183 191 197 192 181 186 196 190 186 188 194 195 183 189 188 170 166 173 184 186 185 189 186 186 190 190 195 193 193 189 182 195 195 192 208 213 213 214 208 203 206 203 191
253 256 225 235 237 237 241 241 249 250 238 243 249 244 243 251 257 260 269 229 217 243 265 358 344 319 279 277 263 250 226 183 167 183 201 206 214 219 215 203 139 105 110 123 136 193 195 177 165 187 199 198 200 193 184 187 193 194 187 186 186 180 183 187 187 184 181 190 186 172 171 174 180 186 190 191 181 183 187 184 194 197 196 189 180 193 191 184 202 213 216 214 207 205 207 209 201
231 233 234 234 223 223 230 226 233 247 245 240 245 244 237 239 250 256 55 54 45 23 43 358 334 330 308 288 273 259 217 169 177 190 193 195 201 200 192 180 131 96 106 167 174 168 164 162 168 194 204 204 206 200 189 186 189 192 188 184 180 177 187 189 181 181 185 188 182 174 172 174 177 183 191 191 179 181 188 188 196 196 198 198 188 189 182 177 190 202 211 208 205 204 200 202 196
222 223 230 234 224 216 225 228 218 227 245 249 252 249 236 237 257 87 98 67 36 22 38 12 334 311 289 271 261 258 214 174 205 204 179 183 182 170 163 144 111 97 146 182 178 150 151 160 173 195 201 199 205 202 193 188 188 189 185 182 179 179 188 189 182 186 187 185 183 178 176 177 177 180 185 187 181 183 188 191 192 191 197 200 192 187 179 178 188 194 199 198 202 203 195 195 194
214 216 222 227 224 217 226 235 229 231 241 239 240 259 243 240 290 63 73 62 30 18 56 34 306 263 254 252 248 250 227 181 200 200 175 173 165 162 173 155 126 120 157 171 168 157 162 167 176 192 193 191 200 200 191 187 186 187 182 179 179 180 186 184 181 189 187 185 187 183 182 181 179 182 180 182 185 181 182 188 187 190 200 201 196 195 188 185 185 183 185 191 194 192 190 191 193
209 218 227 231 231 231 238 241 238 244 245 220 202 223 247 245 81 77 86 101 94 49 67 77 264 219 224 240 228 225 217 172 178 179 168 168 161 163 177 165 161 185 175 168 170 177 179 171 173 187 191 189 194 193 190 187 185 183 178 178 179 180 183 175 178 193 188 185 190 187 185 182 180 181 175 180 183 176 181 188 187 197 206 208 207 200 195 191 184 180 183 186 185 182 184 186 191
204 213 226 233 230 232 249 267 279 292 280 237 208 227 241 155 104 96 98 101 99 86 74 78 46 273 211 210 191 187 182 165 167 164 166 174 167 165 171 162 167 179 170 169 176 181 182 174 173 185 190 188 189 189 188 186 185 181 177 179 178 177 180 174 178 194 190 184 189 186 184 181 178 176 173 180 180 175 183 181 181 198 198 204 207 191 188 196 186 181 182 180 180 178 176 178 188
206 209 223 228 227 237 250 251 257 267 266 259 238 240 194 144 168 118 97 80 80 89 83 81 75 23 350 119 166 171 164 160 167 165 166 172 166 160 158 158 169 174 168 172 178 179 180 174 173 183 191 190 188 189 185 183 183 180 177 181 176 171 178 178 181 194 191 184 184 182 182 179 173 172 175 180 177 176 175 160 173 195 185 191 195 173 173 193 181 176 176 176 174 169 169 171 178
233 221 225 224 226 240 255 244 231 226 242 250 243 243 225 178 214 109 93 82 77 78 72 70 79 73 34 1 353 67 107 126 138 138 139 152 158 159 164 168 176 174 169 173 177 178 178 176 177 184 191 190 187 185 183 181 181 178 178 180 173 168 176 178 180 193 191 183 178 178 179 174 171 174 179 179 176 174 166 161 180 189 179 184 180 160 164 173 166 161 157 164 162 158 169 171 167
230 247 251 239 235 224 216 229 234 232 236 242 241 243 253 44 89 121 59 60 77 83 86 75 69 79 64 12 338 11 77 96 103 106 109 119 129 147 168 174 174 171 170 172 173 174 176 180 182 184 189 189 182 179 181 182 179 178 179 180 173 169 175 177 177 186 186 179 177 177 175 174 175 178 180 176 171 170 167 170 182 181 178 181 172 162 163 159 158 152 143 150 151 151 169 172 168
225 247 248 241 251 241 225 230 238 240 239 239 245 239 180 52 70 125 100 60 76 84 98 94 77 83 82 59 21 40 67 68 74 83 81 84 102 125 148 157 160 164 170 172 173 178 183 185 185 184 186 186 181 177 180 182 179 178 179 179 175 173 175 176 176 182 182 176 177 176 173 177 179 178 178 173 169 170 169 171 176 174 174 174 170 167 162 157 160 155 149 154 149 145 154 161 168
209 229 230 226 236 240 237 238 250 259 257 246 250 244 122 71 25 88 99 87 92 86 88 85 70 69 69 57 42 42 49 51 59 62 50 56 90 119 130 147 163 167 170 176 178 182 187 188 185 184 183 182 180 179 181 181 179 180 179 176 176 175 174 174 175 181 181 176 176 178 178 178 178 177 176 172 170 170 169 169 170 169 169 168 168 167 161 159 161 156 156 157 150 150 147 143 155
208 213 222 226 228 233 233 224 224 240 257 257 244 206 84 57 13 43 82 85 71 59 57 72 65 60 61 54 43 39 39 42 47 42 35 44 63 109 134 151 173 172 168 181 189 190 196 195 185 181 181 179 179 180 182 179 178 180 178 174 175 175 175 176 177 181 182 177 177 183 183 178 177 180 176 172 173 172 170 170 168 168 169 169 169 167 164 163 163 161 159 157 155 158 152 142 144